Regional Weather Roundup
Issued by NWS Midland/Odessa, TX

Skip options and go directly to product.
Home | Oldest Version | Previous Version | Current Version | All | Graphics & Text | Save Text | Print | Product List | Glossary On

Skip product version selection by date and time.   
471
ASUS44 KMAF 260610
RWRMAF
MIDLAND AREA WEATHER ROUNDUP
NATIONAL WEATHER SERVICE MIDLAND TX
100 AM CDT SUN OCT 26 2014

...IN SOUTHWEST TEXAS AND SOUTHEAST NEW MEXICO...

CITY           SKY/WX    TMP DP  RH WIND       PRES   REMARKS
ALPINE         CLEAR     62  49  63 SW8       30.24F
ANDREWS        FAIR      65  52  63 S9        30.10F
ARTESIA        NOT AVBL
BIG SPRING     CLEAR     65  53  64 SE8       30.11F
CARLSBAD       CLEAR     57  49  74 W6        30.07F
DRYDEN           N/A     66  58  75 NE7       30.08F
FORT STOCKTON  CLEAR     67  55  65 S14       30.10F
GUAD PASS      CLEAR     63  37  38 SW13      30.22F
HOBBS          CLEAR     59  48  67 S7        30.12F
MARFA          CLEAR     52  48  87 E3        30.23F
MIDLAND AIRPK  CLEAR     69  54  57 S10       30.10F
MIDLAND INTL   CLEAR     68  52  56 S13       30.09F
ODESSA         CLEAR     69  54  58 S14       30.10F
PECOS          CLEAR     62  53  73 CALM      30.06F
PRESIDIO       FAIR      69  51  51 MISG      30.09F
SEMINOLE       CLEAR     62  52  70 S8        30.11F
SNYDER         CLEAR     64  52  65 S7        30.08F
WINK           CLEAR     68  53  58 SE12      30.06F
$$
...OTHER STATIONS IN TEXAS...

CITY           SKY/WX    TMP DP  RH WIND       PRES   REMARKS
ABILENE        CLEAR     70  53  54 S7        30.06F
AMARILLO       CLEAR     62  50  64 S15       30.05F
AUSTIN         CLEAR     64  58  80 S6        30.08F
BROWNSVILLE    CLEAR     66  65  96 CALM      30.08F
CORPUS CHRISTI CLEAR     65  62  90 S3        30.08F
DALLAS FTW     CLEAR     71  60  68 S10       30.03F
DEL RIO        CLEAR     67  59  75 E3        30.06F
EL PASO        CLEAR     66  50  56 S3        30.12F
HOUSTON INT    CLEAR     59  57  93 CALM      30.08F
LUBBOCK        CLEAR     64  47  53 S13       30.07F
SAN ANGELO     CLEAR     62  51  67 S8        30.08F
SAN ANTONIO    CLEAR     70  61  73 SE5       30.10S
WACO           CLEAR     66  60  81 S6        30.06F
WICHITA FALLS  NOT AVBL
$$
...OTHER LOCATIONS IN NEW MEXICO...

CITY           SKY/WX    TMP DP  RH WIND       PRES   REMARKS
ALAMAGORDO     NOT AVBL
ALBUQUERQUE    CLEAR     57  35  43 SE8       30.19S
CANNON AFB     CLEAR     59  44  57 SW7       30.10F
CLOVIS         CLEAR     55  39  54 SW7       30.13F
HOLLOMAN AFB   PTCLDY    59  45  60 SE6       30.12F
ROSWELL        CLEAR     56  50  80 SW8       30.08S
RUIDOSO        CLEAR     57  36  44 NW6       30.30F
SANTA FE       CLEAR     56  30  37 CALM      30.22F
TRUTH OR CONSE CLEAR     61  43  51 SW6       30.17S
TUCUMCARI      CLEAR     64  46  52 SW14      30.05S
$$

USA.gov is the U.S. government's official web portal to all federal, state and local government web resources and services.